Hutchinson, MN

12:01 PM CST on December 07, 2016 (GMT -0600)
Hutchinson Municipal-Butler

Weather History for KHCD - August, 2012

Change the Weather History Date:

Tuesday, August 14, 2012

  Actual Average Record
Temperature  
Mean Temperature 64 °F -  
Max Temperature 74 °F 80 °F 93 °F (1965)
Min Temperature 54 °F 58 °F 38 °F (1964)
Degree Days  
Heating Degree Days 1    
Growing Degree Days 14 (Base 50)    
Moisture  
Dew Point 59 °F    
Average Humidity 80    
Maximum Humidity 100    
Minimum Humidity 54    
Precipitation  
Precipitation 0.00 in - - ()
Sea Level Pressure  
Sea Level Pressure 29.96 in    
Wind  
Wind Speed 2 mph (East)    
Max Wind Speed 7 mph    
Max Gust Speed -    
Visibility 10 miles    
Events Fog , Rain    
Averages and records for this station are not official NWS values.
T = Trace of Precipitation, MM = Missing Value Source: NWS Daily Summary

Daily Weather History Graph

Daily Weather History Graph

Search for Another Location

Airport or City:

Trip Planner

Search our weather history database for the weather conditions in past years. The results will help you decide how hot, cold, wet, or windy it might be!

Date:

Astronomy

Aug. 14, 2012 Rise Set
Actual Time 6:18 AM CDT 8:24 PM CDT
Civil Twilight 5:47 AM CDT 8:56 PM CDT
Nautical Twilight 5:07 AM CDT 9:35 PM CDT
Astronomical Twilight 4:24 AM CDT 10:18 PM CDT
Moon 3:13 AM CDT (8/14) 6:22 PM CDT (8/14)
Length of Visible Light 15h 09m
Length of Day
14h 05m
Waning Crescent, 9% of the Moon is Illuminated
Aug 14
Waning Crescent
Aug 17
New
Aug 24
First Quarter
Aug 31
Full
Sep 8
Last Quarter

Hourly Weather History & Observations

Time (CDT) Temp. Dew Point Humidity Pressure Visibility Wind Dir Wind Speed Gust Speed Precip Events Conditions
12:10 AM 59.7 °F 56.8 °F 90% 30.00 in 10.0 mi Calm Calm - N/A   Clear
12:29 AM 59.2 °F 57.4 °F 94% 30.00 in 10.0 mi NNW 3.5 mph - N/A   Clear
12:50 AM 59.2 °F 58.1 °F 96% 30.00 in 10.0 mi Calm Calm - N/A   Clear
1:09 AM 56.7 °F 55.8 °F 97% 30.01 in 10.0 mi WNW 3.5 mph - N/A   Clear
1:30 AM 56.7 °F 56.3 °F 99% 30.01 in 10.0 mi NW 3.5 mph - N/A   Scattered Clouds
1:50 AM 56.7 °F 56.3 °F 99% 30.00 in 10.0 mi Calm Calm - N/A   Scattered Clouds
2:09 AM 56.7 °F 56.3 °F 99% 30.01 in 10.0 mi Calm Calm - N/A   Clear
2:30 AM 56.7 °F 56.3 °F 99% 30.00 in 10.0 mi Calm Calm - N/A   Clear
2:49 AM 56.7 °F 56.3 °F 99% 30.00 in 10.0 mi NW 3.5 mph - N/A   Clear
3:09 AM 56.5 °F 56.1 °F 99% 30.00 in 10.0 mi Calm Calm - N/A   Clear
3:30 AM 55.6 °F 55.2 °F 99% 30.00 in 10.0 mi Calm Calm - N/A   Clear
3:50 AM 55.2 °F 55.2 °F 100% 30.00 in 10.0 mi Calm Calm - N/A   Scattered Clouds
4:07 AM 56.7 °F 56.5 °F 99% 29.99 in 10.0 mi Calm Calm - N/A   Scattered Clouds
4:30 AM 54.3 °F 54.3 °F 100% 29.99 in 5.0 mi Calm Calm - N/A   Clear
4:49 AM 54.1 °F 54.1 °F 100% 29.99 in 7.0 mi Calm Calm - N/A   Clear
5:09 AM 54.1 °F 54.1 °F 100% 29.99 in 10.0 mi Calm Calm - N/A   Scattered Clouds
5:30 AM 54.1 °F 54.1 °F 100% 30.00 in 10.0 mi Calm Calm - N/A   Mostly Cloudy
5:50 AM 54.7 °F 54.7 °F 100% 30.00 in 5.0 mi Calm Calm - N/A   Mostly Cloudy
6:10 AM 54.1 °F 54.1 °F 100% 29.99 in 7.0 mi Calm Calm - N/A   Scattered Clouds
6:29 AM 54.1 °F 54.1 °F 100% 29.99 in 4.0 mi Calm Calm - N/A   Clear
6:50 AM - - N/A% 29.99 in 0.5 mi Calm Calm - N/A Fog Fog
7:09 AM - - N/A% 30.00 in 5.0 mi Calm Calm - N/A   Clear
7:30 AM 56.7 °F 56.8 °F 100% 29.99 in 10.0 mi Calm Calm - N/A   Clear
7:50 AM 59.2 °F 59.4 °F 100% 29.99 in 10.0 mi Calm Calm - N/A   Clear
8:09 AM 62.2 °F 61.7 °F 98% 30.00 in 10.0 mi Calm Calm - N/A   Clear
8:29 AM 66.7 °F 60.3 °F 80% 29.99 in 10.0 mi ENE 4.6 mph - N/A   Clear
8:50 AM 67.3 °F 60.4 °F 79% 29.99 in 10.0 mi Calm Calm - N/A   Clear
9:09 AM 69.3 °F 61.9 °F 77% 29.99 in 10.0 mi Calm Calm - N/A   Clear
9:29 AM 69.3 °F 62.2 °F 78% 29.98 in 10.0 mi East 3.5 mph - N/A   Clear
9:49 AM 69.3 °F 60.3 °F 73% 29.98 in 10.0 mi East 4.6 mph - N/A   Clear
10:10 AM 71.6 °F 60.6 °F 68% 29.98 in 10.0 mi East 4.6 mph - N/A   Clear
10:29 AM 71.8 °F 59.0 °F 64% 29.98 in 10.0 mi East 4.6 mph - N/A   Clear
10:40 AM 73.8 °F 59.9 °F 62% 29.98 in 10.0 mi East 3.5 mph - N/A   Clear
11:10 AM 73.4 °F 57.2 °F 57% 29.98 in 10.0 mi Calm Calm - N/A   Clear
11:30 AM 73.4 °F 59.0 °F 61% 29.98 in 10.0 mi SE 3.5 mph - N/A   Clear
11:43 AM 74.3 °F 56.5 °F 54% 29.98 in 10.0 mi Calm Calm - N/A   Clear
11:50 AM 74.3 °F 57.7 °F 56% 29.98 in 10.0 mi East 3.5 mph - N/A   Clear
12:10 PM 72.9 °F 60.6 °F 65% 29.98 in 10.0 mi Calm Calm - N/A   Scattered Clouds
12:29 PM 71.8 °F 58.3 °F 62% 29.98 in 10.0 mi Calm Calm - N/A   Mostly Cloudy
12:50 PM 71.8 °F 58.8 °F 64% 29.98 in 10.0 mi Calm Calm - N/A   Overcast
1:09 PM 73.6 °F 60.3 °F 63% 29.98 in 10.0 mi Calm Calm - N/A   Mostly Cloudy
1:30 PM 74.3 °F 59.5 °F 60% 29.97 in 10.0 mi Calm Calm - N/A   Mostly Cloudy
1:49 PM 74.3 °F 58.8 °F 58% 29.97 in 10.0 mi Calm Calm - N/A   Overcast
2:10 PM 71.8 °F 59.7 °F 66% 29.96 in 10.0 mi Calm Calm - N/A   Overcast
2:30 PM 71.8 °F 60.1 °F 67% 29.95 in 10.0 mi ESE 3.5 mph - N/A   Overcast
2:50 PM 74.3 °F 60.1 °F 61% 29.95 in 10.0 mi Calm Calm - N/A   Overcast
3:09 PM 74.3 °F 61.0 °F 63% 29.94 in 10.0 mi East 3.5 mph - N/A   Overcast
3:29 PM 74.3 °F 59.9 °F 61% 29.93 in 10.0 mi Calm Calm - N/A   Overcast
3:50 PM 74.3 °F 59.7 °F 60% 29.93 in 10.0 mi Calm Calm - N/A   Overcast
4:10 PM 74.3 °F 59.9 °F 61% 29.93 in 10.0 mi Calm Calm - N/A   Scattered Clouds
4:29 PM 71.8 °F 59.7 °F 66% 29.93 in 10.0 mi East 3.5 mph - N/A   Mostly Cloudy
4:50 PM 71.8 °F 58.8 °F 64% 29.92 in 10.0 mi Calm Calm - N/A   Overcast
5:09 PM 72.3 °F 59.7 °F 64% 29.92 in 10.0 mi East 4.6 mph - N/A   Overcast
5:30 PM 74.3 °F 60.6 °F 62% 29.91 in 10.0 mi ESE 3.5 mph - N/A   Mostly Cloudy
5:50 PM 72.5 °F 61.2 °F 67% 29.91 in 10.0 mi Calm Calm - N/A   Scattered Clouds
6:09 PM 70.7 °F 60.1 °F 69% 29.91 in 10.0 mi Calm Calm - N/A Rain Light Rain
6:29 PM 69.3 °F 63.3 °F 81% 29.91 in 10.0 mi Calm Calm - N/A   Light Drizzle
6:50 PM 69.3 °F 63.0 °F 80% 29.90 in 10.0 mi ESE 3.5 mph - N/A   Mostly Cloudy
7:09 PM 69.3 °F 60.4 °F 73% 29.90 in 10.0 mi East 5.8 mph - N/A   Overcast
7:30 PM 69.3 °F 61.0 °F 75% 29.90 in 10.0 mi ENE 5.8 mph - N/A   Overcast
7:50 PM 69.3 °F 61.0 °F 75% 29.90 in 10.0 mi ENE 6.9 mph - N/A   Overcast
8:10 PM 69.3 °F 61.7 °F 77% 29.90 in 10.0 mi ESE 4.6 mph - N/A   Overcast
8:30 PM 66.7 °F 61.2 °F 82% 29.89 in 10.0 mi East 4.6 mph - N/A   Overcast
8:50 PM 66.7 °F 60.1 °F 79% 29.89 in 10.0 mi East 5.8 mph - N/A   Overcast
9:09 PM 66.7 °F 60.6 °F 81% 29.89 in 10.0 mi East 5.8 mph - N/A   Overcast
9:30 PM 66.7 °F 60.8 °F 81% 29.89 in 10.0 mi East 4.6 mph - N/A   Overcast
9:49 PM 66.6 °F 61.2 °F 83% 29.89 in 10.0 mi East 4.6 mph - N/A   Overcast
10:09 PM 65.7 °F 60.8 °F 84% 29.88 in 10.0 mi East 5.8 mph - N/A   Mostly Cloudy
10:17 PM 64.8 °F 59.9 °F 84% 29.88 in 10.0 mi East 5.8 mph - N/A   Mostly Cloudy
10:50 PM 64.4 °F 59.0 °F 83% 29.88 in 10.0 mi East 4.6 mph - N/A   Mostly Cloudy
11:42 PM 64.4 °F 59.4 °F 84% 29.86 in 10.0 mi East 4.6 mph - N/A   Overcast
11:50 PM 64.4 °F 59.4 °F 84% 29.86 in 10.0 mi East 5.8 mph - N/A   Overcast